KT4FD Weather Reports


time (UTC)temp
F
wind
direction
speed
knots
gust
knots
rain 1hr
in
rain 24hr
in
rain mn
in
humidity
%
barometer
mb
20260503210003 67 221 7.0 12.2 0.00 0.00 0.00 43 1019.9
20260503195003 67 243 5.2 10.4 0.00 0.00 0.00 39 1020.9
20260503194003 67 293 6.1 10.4 0.00 0.00 0.00 44 1021.0
20260503193003 67 223 5.2 10.4 0.00 0.00 0.00 42 1021.0
20260503192003 67 257 6.1 10.4 0.00 0.00 0.00 42 1021.2
20260503191003 66 229 5.2 10.4 0.00 0.00 0.00 44 1021.3
20260503190002 66 223 6.1 10.4 0.00 0.00 0.00 41 1021.5
20260503185003 66 209 5.2 10.4 0.00 0.00 0.00 40 1021.6
20260503184002 65 273 5.2 12.2 0.00 0.00 0.00 40 1021.6
20260503183003 65 269 4.3 8.7 0.00 0.00 0.00 39 1021.7
20260503182003 66 234 5.2 10.4 0.00 0.00 0.00 40 1021.9
20260503181004 65 209 6.1 11.3 0.00 0.00 0.00 42 1021.8
20260503180003 65 290 4.3 10.4 0.00 0.00 0.00 46 1021.8
20260503175003 64 332 4.3 14.8 0.00 0.00 0.00 47 1021.9
20260503151003 57 208 2.6 7.8 0.00 0.00 0.00 58 1023.2
20260503072003 42 355 0.0 0.0 0.00 0.00 0.00 80 1019.8
20260503071003 43 355 0.0 0.0 0.00 0.00 0.00 80 1019.8
20260503022003 50 5 0.9 2.6 0.00 0.00 0.00 67 1018.4
20260503021003 50 5 0.9 2.6 0.00 0.00 0.00 62 1018.4
20260503020003 50 5 0.9 2.6 0.00 0.00 0.00 60 1018.1
20260503015003 50 10 0.9 2.6 0.00 0.00 0.00 62 1018.2
20260503014003 50 10 0.9 2.6 0.00 0.00 0.00 64 1018.0
20260503013003 51 10 0.9 2.6 0.00 0.00 0.00 62 1017.8